Theta_e
317 315 314 315 315 313 313 312 312 311 310 309 307 310 308 307 305 316 319 321 310 302 297 307 303 298 298 304 303 302 302 300 301 300 301 299 301 300 299 300 298 299 297 297 296 296 293 295 293 295 296 296 299 299 300 301 301 296 293 298 298 312 295 292 292 294 298 298 300 302 303 303 300 297 297 297 294 295 294 293 298 300 301 298 296 295 301
317 315 314 315 314 313 313 312 312 311 311 308 307 309 306 307 307 311 318 313 309 300 294 295 298 298 301 301 300 302 301 300 299 298 300 299 298 298 300 299 301 301 300 298 297 298 290 296 295 293 297 294 300 298 299 301 298 298 294 295 302 294 296 292 287 284 288 291 295 295 299 297 296 295 296 299 300 305 303 303 303 300 302 301 297 293 302
316 315 314 314 314 313 312 312 312 312 311 310 307 309 310 308 311 311 313 314 303 298 297 297 296 299 301 300 297 299 299 301 301 299 298 301 299 299 298 300 300 299 301 299 299 300 296 293 298 297 298 298 303 298 298 301 299 303 305 315 313 297 300 295 286 283 281 282 283 286 289 290 294 297 296 299 302 300 299 299 300 292 301 302 298 298 306
316 315 315 314 314 313 312 312 312 312 311 309 308 311 310 306 299 306 303 304 302 303 303 299 298 297 298 297 298 299 297 300 301 301 300 300 300 299 300 301 301 299 299 298 298 299 301 297 297 295 295 297 299 300 299 301 300 312 323 319 305 298 302 299 294 288 285 287 290 295 303 294 291 294 296 298 300 302 302 300 298 295 299 299 301 304 305
316 315 315 314 314 313 312 312 312 312 309 309 309 312 310 312 303 301 297 304 300 298 297 298 298 295 299 292 297 296 296 299 300 303 297 301 299 300 300 300 298 299 298 298 299 301 300 302 299 298 297 298 298 301 300 300 311 324 317 314 301 296 291 297 298 296 296 296 297 296 300 294 294 294 295 297 298 300 301 300 298 303 301 292 302 307 305
316 316 316 315 314 313 313 312 311 311 309 308 312 310 309 297 301 306 310 298 292 292 294 297 297 302 300 296 300 297 296 296 295 300 302 302 302 298 300 301 300 299 300 301 297 300 302 299 297 300 300 299 300 296 299 297 308 307 301 306 299 294 292 297 297 294 295 296 297 297 296 295 295 295 295 295 295 297 302 304 306 304 299 297 303 307 306
316 315 316 316 314 313 314 313 311 310 309 308 312 303 306 309 309 307 314 303 305 302 300 305 300 301 304 299 299 295 295 294 297 297 297 301 299 300 294 297 302 302 304 300 297 297 293 295 303 300 299 299 297 295 298 301 301 300 298 299 301 294 292 300 298 295 296 296 297 297 295 295 294 295 295 295 297 298 301 307 307 305 302 306 306 305 307
316 315 316 316 315 314 314 312 311 310 308 314 314 309 303 302 304 304 312 311 306 305 302 302 301 296 304 294 297 299 295 294 297 298 296 295 296 300 296 299 300 302 301 300 296 299 300 300 297 300 298 296 297 298 300 296 299 301 297 299 298 293 293 302 296 293 294 297 299 297 295 295 292 294 295 295 297 307 308 308 308 308 306 307 306 305 304
316 315 316 316 315 314 314 313 312 310 310 318 313 311 311 309 312 313 307 303 306 308 302 300 297 293 295 292 299 302 299 299 302 299 300 295 296 298 296 301 300 300 300 299 298 301 300 299 300 301 299 295 299 298 300 302 298 299 298 298 300 297 293 297 296 289 291 296 296 296 296 295 293 293 294 294 294 298 305 306 309 306 303 305 305 302 303
316 315 316 316 315 314 314 313 312 310 310 314 311 310 316 312 313 316 310 301 312 302 303 300 295 293 297 302 299 299 299 300 301 297 299 299 301 300 301 301 298 296 296 296 299 302 301 300 300 300 301 301 300 300 300 301 299 298 296 301 296 296 293 290 293 288 290 295 296 295 294 290 288 291 294 299 297 295 301 309 312 310 308 304 302 302 308
316 315 316 316 315 315 315 314 314 311 310 307 308 310 314 311 309 310 309 301 303 305 300 295 296 301 300 301 300 301 300 300 301 295 295 301 301 303 302 300 297 294 296 298 302 304 303 301 301 302 301 300 299 299 299 302 301 301 299 296 297 298 295 291 295 288 289 293 293 294 287 282 285 293 299 301 298 300 307 307 308 310 310 307 309 308 310
315 315 316 315 315 315 315 315 313 311 309 306 308 309 315 317 312 310 306 302 300 307 297 294 297 301 299 300 301 300 299 299 300 304 299 300 299 301 300 299 297 291 299 301 302 302 303 303 303 302 301 300 300 300 300 298 298 307 299 298 295 295 293 291 293 288 287 290 290 286 281 283 295 300 304 305 306 309 310 309 310 309 309 309 308 309 309
315 315 315 315 315 315 315 315 314 312 311 308 308 310 317 318 313 310 307 302 301 305 300 298 302 301 300 300 299 300 304 301 303 307 300 301 299 300 301 301 299 299 303 300 302 301 298 297 297 299 297 300 300 299 298 297 297 300 299 299 295 292 291 292 291 290 288 284 284 279 281 292 300 300 308 312 313 313 310 307 309 310 310 310 308 309 310
315 315 315 315 315 315 315 315 314 314 312 309 307 308 313 316 312 308 307 302 303 306 308 298 300 301 300 300 302 303 303 303 302 302 300 302 301 300 304 304 303 306 301 302 303 298 292 293 290 289 290 292 292 291 297 299 299 299 299 300 300 297 293 292 287 291 284 285 283 284 292 295 295 298 301 301 301 306 307 300 303 309 313 310 309 309 310
315 315 315 315 315 315 315 315 315 315 313 309 307 311 313 317 315 312 311 309 304 304 298 293 297 300 302 301 301 297 300 300 301 300 305 307 304 306 304 306 305 303 304 299 293 297 294 293 288 287 288 286 283 287 297 294 300 298 298 298 299 297 293 292 286 289 290 286 281 282 284 284 288 298 303 309 310 311 311 308 303 310 311 314 311 309 309
315 315 315 315 315 315 315 315 315 314 313 309 308 309 312 319 318 315 312 308 302 294 299 304 306 306 303 304 305 301 299 299 299 299 299 302 305 305 307 307 305 304 303 302 299 296 294 289 289 286 285 287 294 293 289 297 295 299 299 298 297 298 298 294 289 290 288 285 282 281 282 285 291 296 301 309 313 312 311 305 299 307 311 311 310 310 312
315 315 315 315 315 315 315 315 315 314 313 310 306 307 311 319 319 314 311 308 305 301 309 309 306 306 299 299 301 298 301 296 299 294 294 297 305 306 305 307 307 307 304 298 296 293 290 289 290 289 291 297 292 290 295 293 292 293 298 299 297 293 291 290 288 289 291 288 285 282 287 289 297 300 302 308 310 310 304 292 294 305 311 312 311 310 310
315 315 316 316 315 315 315 315 315 314 313 312 308 306 310 317 321 315 312 307 303 302 307 312 304 296 297 300 300 303 303 299 298 299 297 301 304 304 306 305 300 306 308 297 297 290 290 290 288 287 288 298 300 296 285 291 291 290 289 291 288 290 291 289 287 287 290 293 287 288 290 298 303 301 301 300 306 299 289 284 296 308 311 313 312 311 311
315 315 315 315 315 315 315 315 314 315 314 310 309 312 315 318 320 315 312 306 303 300 308 314 312 307 307 308 307 307 306 304 300 294 295 297 302 307 308 308 305 296 303 297 293 292 290 291 293 292 289 291 296 289 294 289 289 293 294 289 289 289 291 293 289 287 286 285 286 286 290 298 302 299 305 305 301 288 284 292 301 309 310 312 313 312 311
315 315 315 315 315 315 315 314 314 314 314 312 308 307 312 316 323 320 312 305 305 302 307 309 310 308 311 305 300 299 302 304 301 298 297 296 303 305 296 294 300 302 298 297 291 295 291 290 292 294 289 290 293 299 290 291 296 293 294 296 289 292 287 283 285 287 287 287 285 285 283 295 305 303 298 303 291 287 295 303 307 311 310 311 312 312 309
315 315 315 315 314 314 314 314 314 313 314 314 309 307 311 320 321 322 321 313 304 301 302 312 314 312 312 308 305 305 305 303 304 300 303 302 306 298 287 293 296 298 296 296 291 292 295 290 291 293 295 293 293 292 287 288 289 296 298 295 293 298 289 288 290 293 285 283 282 283 290 298 306 300 293 301 302 303 305 304 303 307 308 308 307 308 308
314 314 314 314 314 314 314 313 313 313 314 314 310 308 309 315 319 323 323 318 308 303 304 312 316 314 317 316 307 306 308 310 312 309 303 300 303 301 300 303 303 302 303 301 295 295 295 296 296 292 289 291 293 290 293 284 284 292 297 294 285 295 294 294 288 296 291 289 290 295 297 301 305 305 304 304 306 306 306 306 305 305 305 307 306 305 306
314 314 314 314 314 314 313 313 313 313 313 314 311 305 306 310 316 320 317 309 311 314 317 315 316 316 322 324 315 309 308 314 315 312 307 300 300 304 303 302 302 310 308 304 295 295 297 295 293 295 292 293 294 290 290 290 287 291 290 297 294 301 301 300 298 296 303 302 301 305 303 303 303 305 305 305 306 307 308 307 305 304 305 305 305 305 305
314 314 314 314 313 313 313 313 313 313 313 314 312 304 305 309 312 317 315 312 309 305 308 312 308 303 306 308 312 310 311 312 315 314 313 307 298 300 305 307 310 309 306 308 306 300 299 297 296 296 290 295 294 289 287 285 290 294 293 292 296 301 303 298 293 297 291 289 299 303 304 305 304 304 307 308 308 306 308 307 306 306 306 306 306 305 305
314 313 313 313 313 313 313 312 312 312 313 313 312 312 311 311 315 316 312 305 306 302 299 304 306 313 316 313 312 311 311 313 316 313 311 309 304 301 303 309 311 306 305 309 307 304 301 296 296 294 291 297 297 288 293 290 289 297 288 291 293 293 303 296 298 296 291 293 300 303 306 306 307 306 304 305 307 307 308 308 308 308 307 307 306 306 305
313 313 313 312 312 312 312 312 312 312 313 313 313 305 306 309 314 317 315 313 312 308 302 301 305 316 317 314 312 315 315 311 309 313 312 311 312 314 312 313 311 313 311 313 306 303 299 297 297 296 291 293 300 292 293 295 294 296 295 292 295 298 301 291 296 293 296 301 302 302 302 301 303 306 304 307 307 307 306 307 307 307 306 306 305 306 305
313 312 312 312 312 312 312 312 312 312 312 312 310 306 306 310 315 314 312 312 306 305 303 301 306 313 316 312 316 313 314 311 309 309 313 312 314 315 314 312 310 308 308 307 307 303 301 298 296 294 297 296 301 298 298 296 295 294 293 296 302 298 292 296 295 291 290 293 296 301 295 295 299 305 307 305 307 306 305 305 305 305 305 305 305 306 307
312 312 312 312 311 312 312 312 312 312 312 312 311 308 310 310 315 318 318 315 310 302 301 301 304 308 314 312 318 312 314 315 314 316 315 316 317 316 314 312 310 307 305 301 298 298 296 294 294 299 300 299 297 294 299 298 297 293 294 294 299 295 295 294 291 288 288 295 302 304 301 299 301 305 307 307 307 306 304 304 303 304 305 306 306 305 305
312 312 312 311 311 312 311 312 312 312 312 310 308 309 312 314 316 320 319 322 315 309 305 305 307 307 302 307 316 313 316 317 316 315 316 316 316 314 312 310 308 307 306 304 302 299 296 298 300 297 297 301 298 293 295 288 290 287 291 298 301 302 303 300 300 297 299 304 304 306 304 302 306 308 307 307 307 306 305 305 304 304 305 306 306 305 304
312 312 311 312 311 312 312 312 312 312 312 308 307 310 308 311 316 316 316 321 317 312 304 300 298 302 312 313 313 314 316 316 316 315 314 313 314 313 311 310 309 312 306 304 300 297 298 298 301 302 304 306 297 294 290 290 288 289 299 302 303 304 305 305 306 302 299 304 304 305 305 305 308 310 309 308 308 309 305 304 304 304 304 305 305 305 305
312 311 311 311 312 312 313 312 312 312 311 306 308 307 304 302 313 319 313 315 317 312 306 305 300 308 308 314 313 312 314 315 312 313 313 313 312 313 313 312 310 311 301 302 299 300 300 296 298 300 304 306 302 294 291 290 287 288 298 301 302 303 303 303 306 307 307 306 307 308 308 306 308 308 308 310 310 308 307 307 310 312 307 306 304 305 305
311 311 311 311 312 313 314 313 313 312 306 305 307 308 308 310 313 313 312 313 315 310 305 299 299 300 301 307 314 319 317 317 316 316 313 316 309 311 310 310 307 309 307 300 302 300 297 300 299 299 297 304 305 294 294 290 287 289 298 300 301 303 304 304 304 304 306 306 305 303 303 305 307 304 304 308 309 310 309 308 307 308 315 307 305 305 305
311 311 311 311 312 313 314 315 314 311 306 310 312 312 311 311 311 312 313 314 313 309 310 302 297 301 300 303 310 314 319 313 309 309 306 312 308 308 305 312 309 307 317 305 296 293 300 300 299 296 300 304 299 297 291 287 290 296 299 302 301 302 304 305 305 305 305 305 304 300 299 301 304 307 308 309 310 310 310 310 309 308 304 303 303 304 303
312 311 311 312 313 314 315 315 315 313 311 308 310 312 316 314 312 310 311 314 311 311 310 302 299 298 298 308 302 307 317 304 304 304 301 310 311 305 304 306 305 302 303 299 300 299 300 303 296 296 300 298 299 291 285 291 298 299 299 300 301 302 304 304 304 303 304 304 305 304 305 306 307 307 308 308 308 310 310 309 310 308 304 303 302 303 303
312 312 312 313 314 314 314 314 310 309 309 312 314 315 314 313 312 313 317 312 306 305 303 304 302 296 296 297 297 302 314 305 302 304 301 304 313 305 303 299 300 296 299 306 300 297 296 297 300 294 291 297 290 284 286 292 297 298 299 299 301 301 299 299 300 302 303 304 304 304 305 306 305 304 304 306 307 308 308 308 309 308 306 303 302 302 302
312 312 313 313 313 313 311 312 309 310 311 311 313 320 319 316 314 315 315 318 311 304 302 303 302 297 295 292 292 302 315 305 307 307 306 306 304 308 305 299 294 298 305 299 294 297 295 303 296 288 295 287 285 287 291 296 298 299 300 300 300 301 299 300 301 303 303 303 303 302 302 303 303 304 305 306 306 308 308 307 307 309 307 305 304 302 302
312 312 313 313 310 311 310 312 316 316 314 315 318 319 320 320 320 318 316 313 315 315 304 302 296 297 297 297 301 306 305 295 303 301 303 299 298 305 300 297 292 301 299 295 296 294 298 307 294 288 285 282 287 296 299 300 301 300 301 301 303 303 303 302 306 304 301 302 302 299 300 300 301 302 302 303 305 307 307 306 306 306 305 305 306 307 304
312 312 308 308 309 308 309 312 315 317 319 318 319 313 310 311 306 308 309 306 311 314 305 305 297 300 305 300 297 307 303 297 302 297 299 303 297 298 301 297 297 300 289 292 296 301 298 296 291 287 290 294 297 300 301 302 303 303 302 303 303 303 303 304 303 301 299 297 297 299 299 297 296 298 301 300 302 304 305 306 307 307 307 307 308 309 308
310 307 309 310 309 307 308 314 318 320 317 316 315 308 306 309 306 303 304 306 306 300 305 304 299 303 302 300 300 307 304 296 295 297 293 300 295 291 297 289 296 296 287 292 295 303 291 291 291 288 287 294 296 298 301 302 303 303 304 304 305 304 304 304 305 303 301 300 300 301 300 297 297 298 301 302 302 304 304 305 305 307 307 308 308 309 310
307 307 309 310 308 310 317 317 319 317 315 308 309 306 302 308 300 294 308 298 297 304 306 300 305 305 304 300 299 299 308 300 294 295 294 297 301 291 296 293 296 293 285 285 290 300 288 283 290 285 285 291 294 299 300 301 302 302 303 304 304 304 303 303 303 304 304 304 304 303 303 303 303 302 302 302 303 304 304 305 307 307 306 307 309 308 307
309 308 308 307 309 311 312 315 317 314 310 304 304 306 302 293 303 304 302 297 295 299 307 304 305 302 306 306 302 298 308 310 304 302 298 294 303 301 293 290 298 291 288 286 295 297 292 286 283 280 285 292 294 297 300 302 301 304 302 302 304 302 301 301 301 302 301 300 301 302 302 304 304 303 303 303 303 303 305 306 305 306 306 306 308 307 307
305 304 306 306 307 307 310 312 311 307 307 307 298 289 294 299 304 300 301 293 295 302 303 304 300 300 301 305 304 305 304 308 304 304 297 294 302 296 293 295 296 289 284 292 298 292 288 280 281 284 290 293 298 299 300 300 302 301 300 301 302 302 300 299 299 300 301 299 299 299 301 301 301 302 303 303 303 303 304 305 307 307 307 306 307 306 307
309 308 306 304 307 309 310 296 304 305 290 290 287 285 292 290 296 297 298 304 309 303 303 311 307 308 309 311 306 308 304 308 301 301 297 294 301 298 293 291 292 285 289 297 293 288 282 279 281 286 291 295 297 299 299 300 300 300 300 301 299 300 299 298 298 298 299 299 299 298 299 299 300 302 304 304 302 303 304 306 307 306 307 307 306 306 307
309 310 307 308 303 306 304 289 306 301 289 287 287 285 290 292 294 298 299 298 302 302 305 303 303 301 298 306 303 304 305 305 305 301 298 300 296 294 292 287 289 294 298 291 289 283 283 288 287 289 293 296 301 300 299 300 298 298 298 298 299 298 297 297 297 296 297 298 299 299 300 299 299 301 301 302 303 302 302 303 305 306 308 307 305 305 306
305 304 299 293 291 296 290 285 296 288 283 286 293 294 295 291 293 296 296 303 305 301 306 306 305 303 302 308 306 304 303 299 304 297 294 296 293 294 289 286 293 295 290 286 287 286 288 284 291 294 296 296 297 298 297 296 296 296 296 296 297 297 296 296 296 296 296 297 297 299 298 298 298 299 299 300 301 303 302 302 303 304 303 304 305 305 306
303 295 289 289 289 288 286 283 285 287 296 299 297 298 297 298 299 300 306 308 304 304 303 304 305 306 303 306 300 299 302 301 296 296 298 295 289 287 294 297 294 287 288 285 281 279 281 284 289 293 295 295 296 296 295 296 296 296 296 294 296 296 296 296 296 296 296 296 296 296 296 296 296 297 297 298 299 300 301 302 304 305 305 303 304 305 305
299 304 295 289 286 287 297 288 289 293 299 302 302 302 302 303 305 305 307 308 306 307 308 308 307 306 302 302 302 300 302 300 296 298 297 291 290 291 298 291 286 285 280 278 281 282 284 287 291 294 294 294 294 295 295 295 296 295 295 296 296 295 296 296 297 296 296 297 296 296 296 296 297 297 299 298 298 298 302 304 303 304 305 304 305 306 306
293 298 297 287 285 289 290 295 301 303 304 305 305 306 307 307 306 303 307 309 309 309 307 307 304 304 301 306 302 295 297 297 295 295 296 293 293 289 282 288 286 287 286 282 281 284 287 291 293 294 294 295 294 294 295 295 295 295 295 294 294 295 295 295 295 295 296 296 296 296 296 297 296 297 297 297 298 299 300 300 301 302 303 304 304 304 306
305 294 288 286 294 298 297 299 301 299 301 304 306 307 306 305 304 306 309 311 309 308 308 305 304 300 296 300 297 295 292 295 288 286 294 292 286 282 283 281 283 282 288 289 286 290 291 292 295 295 294 295 294 296 294 295 296 295 296 295 294 294 295 295 295 296 297 297 297 297 297 298 298 297 297 297 296 297 298 298 298 299 300 303 305 305 304
295 291 298 295 295 295 298 300 298 296 301 304 306 306 307 305 305 308 311 309 309 308 309 308 306 298 298 299 289 290 288 292 292 288 288 286 288 288 287 283 283 281 283 290 289 291 293 293 294 294 294 295 296 295 294 296 298 298 296 296 296 296 297 297 296 297 297 296 297 297 297 298 296 295 295 296 297 298 298 298 298 298 299 301 303 304 306
300 295 292 301 297 295 298 294 294 295 297 299 302 303 304 303 305 307 312 311 311 308 304 299 298 296 288 286 285 285 286 294 292 288 287 287 290 288 284 281 284 288 289 292 293 293 293 294 294 294 294 294 295 294 296 297 297 297 297 297 297 297 297 297 297 298 297 298 298 301 298 297 297 297 298 298 298 298 298 299 302 300 299 300 302 303 305
292 290 293 299 303 302 302 301 301 301 303 304 304 306 308 306 310 311 316 312 309 302 298 302 297 288 286 286 289 292 295 290 288 291 288 290 293 288 287 287 289 291 292 292 292 294 296 294 295 297 295 296 298 295 296 297 297 297 297 297 297 297 297 297 297 297 298 298 298 297 297 298 299 299 300 300 299 297 296 296 299 300 300 300 301 304 304
Wind_Speed
19 20 20 19 19 19 20 19 18 18 20 6 5 3 2 2 4 8 9 9 3 5 0 0 1 2 4 2 1 1 1 2 4 4 6 4 5 3 2 1 3 3 4 3 4 7 2 1 2 0 1 2 2 5 8 7 8 3 4 2 3 1 2 5 5 6 7 5 3 5 3 1 2 2 1 3 1 2 5 5 5 5 5 7 3 5 3
19 20 19 19 19 20 21 19 18 17 13 3 5 1 1 2 2 7 6 1 6 5 3 4 2 3 3 2 2 2 2 4 4 3 4 3 3 3 2 3 2 2 4 3 4 5 2 1 2 2 1 2 4 6 7 7 3 4 1 1 5 2 2 3 2 4 7 7 3 7 7 5 1 1 2 1 1 9 5 7 4 6 2 5 10 9 6
19 19 19 19 19 21 21 21 19 17 14 3 2 1 2 3 3 4 7 4 5 2 3 4 2 3 1 2 3 1 3 3 2 3 4 3 3 4 3 2 2 2 1 2 4 6 1 0 3 2 0 1 1 7 6 5 1 1 2 4 2 2 1 3 3 2 3 2 3 3 4 3 5 1 4 5 2 4 5 4 1 4 2 7 6 4 5
19 20 19 19 20 21 22 23 21 19 14 0 2 3 1 3 3 6 5 5 2 1 1 1 4 3 4 5 2 1 2 2 5 8 3 4 4 2 2 5 3 4 3 3 4 5 6 3 1 4 3 2 2 2 5 2 1 5 6 5 2 1 1 4 2 1 3 2 3 6 2 2 3 4 4 3 4 5 7 5 5 7 5 4 2 16 12
19 20 19 19 20 21 22 24 24 21 16 6 5 1 2 0 3 2 6 6 5 1 4 3 5 3 1 2 2 7 4 1 3 9 1 3 4 2 5 4 2 3 5 2 2 4 4 8 4 5 4 4 1 5 2 4 3 6 2 6 3 2 4 5 3 1 2 5 5 4 1 1 3 7 4 7 4 3 4 8 5 7 12 4 2 20 19
19 19 20 20 20 20 22 24 26 24 16 6 1 3 2 3 2 1 1 2 2 5 6 2 6 4 4 2 3 5 7 7 4 4 7 5 9 7 5 9 6 3 3 3 3 2 2 4 4 6 6 3 9 3 4 4 9 7 2 4 4 2 2 5 2 7 6 2 4 4 2 4 3 3 8 7 7 7 5 2 9 6 8 11 12 14 20
18 19 21 21 19 20 21 23 26 27 21 5 1 4 5 1 1 1 3 1 2 1 6 4 7 7 6 2 5 6 8 7 3 2 4 5 5 7 4 6 9 9 7 5 1 2 2 3 2 3 5 3 4 5 6 6 8 4 3 4 1 2 1 4 3 5 7 7 8 7 4 4 4 6 5 5 8 5 6 6 6 7 7 15 14 4 10
18 19 20 21 19 20 21 21 24 25 27 6 4 6 2 4 3 5 4 1 3 5 6 2 7 7 4 3 4 1 3 4 6 3 4 3 4 5 8 10 5 10 11 8 6 4 3 3 3 3 5 7 6 2 1 3 6 7 4 2 4 4 2 7 6 4 6 8 8 8 7 5 4 5 5 6 8 9 7 6 9 16 16 15 15 12 8
18 18 20 20 19 19 20 21 23 26 19 6 6 2 3 3 1 0 2 6 5 6 3 3 6 3 4 4 3 3 3 2 2 2 1 4 3 2 5 5 9 9 10 9 7 5 4 5 4 2 3 2 2 1 3 1 2 5 5 3 4 6 2 2 3 4 4 6 11 8 8 5 3 2 5 6 5 7 4 7 4 12 14 15 14 10 7
17 18 20 20 18 18 19 19 21 24 18 5 2 5 3 1 2 0 2 0 1 5 4 2 5 4 1 1 1 2 3 4 5 2 4 4 7 4 6 4 7 6 10 7 6 6 3 5 4 4 1 1 3 2 2 1 2 1 4 1 3 2 1 3 4 5 4 6 8 8 5 5 4 5 4 0 2 4 4 3 9 17 19 16 13 10 11
17 17 19 18 17 18 18 17 18 20 11 5 3 3 5 5 5 5 3 3 6 7 3 4 5 1 2 10 7 7 5 8 5 2 1 2 6 7 9 7 4 1 3 4 7 3 2 4 4 3 4 5 4 6 6 8 5 1 0 2 2 3 4 1 1 1 3 8 10 4 5 4 2 5 4 3 2 9 10 7 11 15 13 10 11 12 9
16 17 18 18 17 16 16 16 14 14 10 3 1 2 3 3 1 1 2 6 3 4 4 5 3 4 9 6 6 5 8 7 4 2 2 3 4 7 7 6 4 2 4 4 4 6 6 3 3 4 3 5 6 7 7 6 5 2 2 1 1 3 4 2 0 1 2 5 6 6 2 1 3 9 5 5 12 10 12 9 8 9 13 17 15 14 12
16 16 18 18 18 17 16 15 15 15 13 5 1 2 4 3 0 1 2 3 2 4 6 4 4 8 6 7 5 4 3 4 5 5 2 4 4 5 3 2 1 1 4 5 7 5 2 3 3 3 3 4 5 5 7 7 6 5 1 2 2 2 3 2 2 0 1 4 2 2 1 3 5 7 7 8 12 16 16 11 6 5 13 19 15 12 13
15 16 17 17 17 17 17 17 16 15 16 9 1 2 3 3 4 4 2 2 2 2 2 2 10 6 7 6 3 3 3 3 2 4 2 1 3 4 2 2 0 1 4 3 3 2 3 4 2 3 4 5 4 4 3 3 2 3 4 5 1 2 2 2 2 0 1 2 1 3 4 3 2 2 2 1 3 6 15 7 2 3 5 11 15 15 17
15 16 16 17 17 16 17 17 17 17 16 14 2 3 4 4 2 1 1 2 0 3 4 5 5 4 3 3 3 4 3 2 5 3 3 3 1 0 2 2 2 4 4 3 3 3 1 0 2 1 2 1 0 1 2 2 1 3 4 5 4 3 3 2 3 2 2 1 3 4 2 1 3 4 3 1 7 4 6 13 6 3 6 7 8 12 17
15 15 16 16 17 17 17 17 17 16 17 15 4 3 5 3 2 1 1 1 1 5 5 2 4 3 3 2 3 5 2 2 2 1 4 4 1 2 3 0 1 4 3 3 1 1 2 1 0 1 0 1 1 1 1 3 2 5 4 5 5 5 7 5 4 1 4 4 1 1 1 4 3 4 6 3 9 11 7 10 6 2 4 6 12 10 4
14 15 15 16 16 16 16 17 16 15 14 14 6 4 3 4 4 2 1 2 2 1 4 7 4 5 5 5 6 4 1 3 1 2 2 2 1 1 1 1 2 3 2 3 3 2 3 1 0 1 1 1 0 1 0 1 1 3 6 4 3 3 2 2 2 1 1 1 1 2 2 1 3 3 3 2 10 10 9 7 5 4 10 10 13 15 15
14 15 15 16 16 16 16 16 17 15 15 14 5 1 3 5 5 2 3 2 2 2 5 8 6 4 3 1 1 3 3 3 4 1 1 3 1 2 3 2 2 2 3 2 1 3 2 1 3 0 0 2 1 1 0 1 0 1 1 0 0 1 1 1 3 1 1 2 2 1 2 3 3 3 5 3 2 7 7 7 9 6 9 10 13 16 14
13 14 15 15 16 16 16 16 16 17 15 16 8 1 2 3 6 4 2 3 3 1 6 6 2 5 5 2 3 1 1 2 2 3 2 4 1 3 3 0 1 1 5 1 2 2 2 2 1 1 1 3 3 0 1 1 2 2 1 1 2 3 1 2 2 1 2 3 2 4 4 3 1 4 1 3 1 3 2 4 2 11 11 9 11 10 6
13 13 14 15 15 16 15 15 16 15 15 14 7 1 5 5 4 5 4 1 1 2 6 3 4 4 3 4 5 6 5 7 2 5 1 1 3 4 5 3 5 3 5 2 2 1 3 1 1 1 3 1 0 1 1 2 1 1 2 1 3 2 1 1 0 2 1 1 1 1 1 2 6 10 4 6 2 4 3 1 1 7 11 10 9 10 8
12 13 13 14 15 15 15 15 15 14 15 15 8 1 4 3 6 4 3 1 2 1 4 4 3 6 3 3 3 4 6 3 1 3 1 1 2 2 1 0 2 0 0 1 2 1 1 1 2 1 1 1 3 3 0 1 4 2 1 1 1 0 1 1 0 1 1 1 1 2 2 7 9 1 2 2 1 2 3 6 6 2 7 9 8 7 9
12 13 13 14 15 15 14 15 15 14 14 14 11 0 0 4 4 3 4 1 2 3 4 5 2 4 5 5 3 4 5 5 3 3 2 1 4 3 3 2 2 1 0 1 3 2 3 0 1 2 2 2 3 1 0 2 2 3 3 3 2 3 1 3 1 2 1 1 1 2 3 3 5 5 2 1 2 3 3 6 5 7 4 5 9 8 10
12 12 13 14 15 15 15 14 14 13 13 13 8 2 1 5 7 7 3 2 1 2 2 2 2 2 3 3 1 4 5 7 7 6 5 3 2 4 4 2 2 0 1 1 3 4 2 1 0 1 1 0 0 1 2 1 1 2 1 2 2 0 2 1 1 2 2 2 1 1 2 3 8 8 6 3 4 4 5 10 10 4 4 5 11 10 10
12 12 13 14 15 15 14 14 13 12 12 12 6 1 2 4 6 6 4 2 2 3 3 2 2 3 1 1 1 3 5 4 2 3 3 5 4 1 2 1 1 3 2 1 2 3 2 1 2 1 1 1 1 1 1 2 1 2 1 2 2 1 3 2 0 2 3 2 7 5 1 3 5 9 8 9 7 4 4 8 8 6 8 9 8 10 9
11 12 12 14 14 15 14 13 13 12 11 12 10 4 3 3 2 4 2 3 4 3 1 5 2 1 6 2 4 4 2 3 4 5 5 5 7 5 4 1 2 4 2 1 1 5 3 2 3 2 1 1 1 2 1 1 1 2 3 2 2 2 0 1 0 1 2 3 2 5 4 1 1 3 9 7 7 8 6 6 6 7 6 7 8 9 10
11 12 12 13 14 14 13 12 13 12 11 12 9 3 2 3 4 4 1 1 0 1 1 1 4 5 7 6 3 1 3 3 3 5 3 5 6 10 9 2 3 3 3 2 5 4 2 2 1 1 1 2 1 1 0 1 2 1 1 5 3 2 2 2 1 1 4 2 2 5 1 5 4 4 1 6 10 10 7 7 8 9 10 9 7 8 7
12 11 12 13 14 13 12 12 12 12 11 10 5 3 3 5 3 1 1 1 1 1 1 1 3 5 8 8 4 1 3 2 1 2 1 4 5 3 6 6 6 4 4 3 2 3 2 1 2 1 1 1 1 1 1 3 0 0 1 3 1 2 2 1 1 1 2 3 1 2 3 1 2 3 3 1 6 11 10 9 9 9 11 8 9 6 6
12 12 12 13 13 13 12 12 12 12 11 11 6 5 3 3 4 3 4 1 3 2 1 1 4 7 5 2 2 2 0 5 10 12 10 11 10 8 7 6 5 4 2 3 2 3 1 1 0 0 0 2 1 2 1 0 0 1 1 4 2 2 4 2 2 3 2 3 2 1 1 2 3 1 6 3 4 9 11 11 10 9 9 10 12 12 9
12 12 12 12 12 12 12 12 12 12 12 9 5 4 1 5 4 3 4 2 3 2 1 2 2 2 1 2 4 2 3 11 9 9 9 8 9 7 7 5 5 2 3 3 2 2 2 1 1 2 0 1 1 2 2 1 0 2 2 4 6 3 3 1 1 2 1 2 2 1 2 1 3 7 6 6 6 2 10 6 9 10 10 10 11 11 13
11 12 11 11 12 12 12 11 11 11 10 6 2 1 2 1 1 4 6 4 2 2 2 1 2 1 3 2 2 3 3 7 9 10 9 7 6 6 6 6 4 3 3 2 3 2 1 2 0 1 0 0 1 1 1 1 1 1 3 5 4 4 4 5 6 4 3 3 2 1 0 1 2 1 6 5 6 8 2 7 8 8 6 9 12 9 10
11 11 11 11 11 11 11 10 9 9 7 3 1 1 1 0 1 2 7 5 4 2 0 1 2 3 3 1 1 5 3 3 6 8 7 5 4 4 3 6 2 2 3 2 3 1 1 1 1 0 0 0 1 1 1 0 2 2 1 1 2 3 2 1 1 1 2 4 4 3 0 5 7 5 5 8 12 12 8 3 4 7 8 7 9 10 9
10 10 8 10 10 10 9 8 7 5 2 1 1 1 1 1 1 5 6 4 4 3 2 1 1 1 1 1 2 2 2 3 3 3 2 1 2 2 2 4 2 1 2 3 2 2 0 1 2 2 1 1 3 1 0 1 1 4 2 1 2 4 3 3 2 2 1 0 4 4 4 4 7 4 3 8 10 11 11 12 6 4 9 7 7 8 8
9 9 9 9 10 10 10 9 7 4 2 5 11 11 13 15 15 10 3 3 1 1 0 1 1 0 0 1 3 4 1 2 3 1 1 1 1 1 2 1 2 3 4 2 1 1 1 1 1 2 1 0 1 1 1 1 2 3 3 3 3 4 5 2 1 2 3 2 1 2 3 3 2 3 2 3 1 3 8 11 13 13 1 7 7 6 5
9 9 10 10 10 10 10 10 9 8 6 3 2 0 2 6 4 4 1 0 0 1 1 1 0 0 1 1 1 2 1 2 0 1 1 2 1 3 0 1 2 1 2 2 1 2 2 1 1 1 1 1 0 2 0 2 2 4 3 3 4 5 4 2 3 3 3 3 1 1 4 3 2 2 3 3 2 3 4 6 9 14 7 5 6 7 9
8 9 10 11 10 11 13 10 3 0 1 2 0 1 0 1 3 2 2 0 1 0 0 1 1 0 1 1 0 2 0 3 0 1 3 2 1 2 0 2 2 2 1 1 1 1 2 1 5 3 0 0 2 0 1 2 3 3 3 3 3 3 3 3 3 4 4 4 3 1 1 3 2 1 0 1 2 2 2 2 2 5 8 6 4 7 8
10 11 11 11 10 7 4 1 2 1 0 0 1 2 3 4 2 1 1 1 1 1 1 1 1 1 2 0 0 1 1 0 1 1 1 1 2 1 2 2 1 1 0 1 2 0 1 1 2 0 0 1 2 2 2 1 3 3 3 2 3 1 0 1 3 5 5 2 2 2 3 2 1 1 1 1 2 3 3 1 4 3 2 7 7 2 7
9 10 12 10 3 0 1 1 2 3 1 2 3 7 5 2 0 1 1 2 1 0 1 0 1 2 3 2 0 1 1 0 0 1 0 1 3 0 2 1 1 1 1 1 0 1 1 0 3 1 0 2 1 1 3 2 2 2 3 3 3 2 2 3 4 2 4 2 3 3 2 1 1 1 3 1 1 2 5 8 7 4 2 1 3 5 3
9 8 1 2 1 1 0 0 1 2 8 7 7 2 1 1 1 0 0 0 0 2 1 0 2 3 1 3 0 2 1 2 0 2 0 0 2 0 1 2 1 1 1 1 1 2 2 1 1 2 1 2 2 1 1 2 3 2 1 1 2 3 3 3 2 2 2 3 4 5 5 4 3 3 2 3 1 3 4 5 5 7 7 5 3 2 6
2 1 1 0 0 0 0 1 2 8 2 0 1 0 0 0 0 0 1 1 1 1 2 3 3 3 2 1 1 2 2 1 0 1 1 1 1 1 1 1 1 1 1 1 1 1 0 0 1 2 0 1 0 1 1 3 3 3 2 2 1 2 3 4 3 0 0 0 2 3 2 3 4 5 4 3 3 3 3 3 5 7 9 10 8 4 2
2 1 0 0 1 1 1 3 4 2 0 0 0 1 0 1 1 0 0 1 1 1 2 2 3 3 4 3 3 1 0 2 1 0 1 1 0 1 0 1 1 1 1 1 1 1 2 1 1 1 1 1 2 2 2 2 3 4 2 0 0 2 3 3 4 4 2 2 3 3 3 4 4 4 4 5 4 4 3 3 5 5 5 7 8 9 7
0 1 2 1 2 3 4 5 2 0 0 0 0 1 0 0 1 1 1 0 1 2 2 2 0 0 1 1 2 2 2 1 1 2 2 1 1 2 2 0 0 1 1 0 1 1 1 1 0 2 4 2 2 2 3 3 3 1 3 3 2 2 3 3 4 4 3 5 5 4 4 4 3 3 3 3 3 3 4 3 4 5 5 6 7 6 7
1 0 1 3 4 4 3 1 1 0 0 1 1 1 1 2 0 1 1 2 1 0 1 1 0 2 2 5 4 3 1 1 1 1 1 0 1 1 1 0 0 1 1 1 2 1 1 1 1 1 2 2 3 3 3 3 2 2 3 1 1 1 2 3 4 3 1 2 2 3 4 4 4 4 3 2 4 4 5 4 5 4 6 7 5 4 8
8 5 2 1 1 1 1 1 1 1 1 1 2 2 2 0 0 0 1 1 0 1 1 0 1 1 1 2 1 0 2 1 1 0 1 1 0 1 1 0 0 0 2 0 1 1 1 1 2 4 1 2 2 3 3 2 0 1 1 2 2 0 0 1 2 3 3 0 0 2 2 3 5 5 4 4 4 4 4 4 4 4 4 4 4 4 5
1 1 1 0 0 1 1 0 0 1 3 1 1 0 0 0 1 1 1 2 1 1 2 1 1 2 3 1 1 0 1 1 0 1 0 0 2 0 1 1 2 1 1 2 1 2 2 1 2 1 2 1 2 3 3 1 1 3 5 6 5 4 6 4 4 4 5 4 2 2 1 3 4 5 5 4 4 4 5 5 4 4 3 3 4 4 4
1 0 1 1 0 2 2 2 2 3 2 2 1 1 1 2 3 2 3 3 2 2 1 0 1 1 2 1 2 1 1 1 1 2 1 1 0 0 1 2 2 1 1 2 0 0 0 2 2 1 1 2 3 0 3 4 4 3 1 3 5 4 4 5 5 5 5 5 5 4 4 4 4 5 5 4 4 4 4 6 5 4 3 3 4 6 6
0 1 1 2 2 2 1 1 0 0 2 2 3 5 5 6 5 3 5 2 2 2 3 3 2 2 2 2 3 3 1 2 1 1 1 1 1 2 3 0 2 1 0 0 2 4 4 4 5 6 4 2 2 4 4 3 3 3 4 4 4 4 4 2 2 2 3 4 4 4 4 4 3 3 3 3 3 4 3 3 4 4 4 3 4 6 6
1 1 0 1 1 2 0 1 3 4 2 1 4 6 6 6 5 4 1 0 1 1 3 2 2 4 3 1 0 1 1 1 2 1 1 1 2 1 0 2 1 1 2 2 3 2 2 4 4 4 3 4 4 3 3 3 3 3 2 1 3 4 4 3 3 4 4 4 4 4 4 4 4 4 4 4 4 4 4 4 4 4 4 4 5 5 4
0 1 1 1 3 1 1 4 3 0 0 2 3 5 4 1 0 4 4 2 2 1 1 2 5 1 2 2 2 4 3 1 1 2 2 2 1 2 1 0 0 1 1 3 4 3 4 5 6 5 4 4 4 4 3 2 1 2 3 3 4 4 4 4 4 4 4 4 4 4 4 4 4 4 4 5 5 5 4 3 3 4 5 4 4 4 4
1 0 1 2 1 1 2 2 1 1 3 3 1 0 1 2 5 6 4 0 1 3 3 2 2 2 2 1 2 1 1 0 1 2 1 0 1 2 2 2 2 1 2 3 4 4 6 5 5 6 5 4 4 4 3 3 2 3 3 4 4 5 4 4 5 5 5 4 4 4 5 4 4 4 4 4 5 6 4 3 4 4 4 5 5 5 4
0 2 1 0 2 4 5 3 2 4 3 2 0 3 3 4 4 6 2 1 2 2 0 0 1 1 2 0 1 1 1 2 3 0 1 2 2 1 1 1 2 4 3 3 3 4 6 6 7 6 5 5 4 4 3 3 2 1 2 3 4 3 3 4 4 5 5 5 6 6 5 4 4 4 4 6 6 4 4 4 4 5 6 5 5 4 5
1 1 3 4 5 5 2 1 0 3 4 5 5 4 3 3 2 2 2 2 2 0 1 2 1 0 1 1 0 0 2 1 0 1 3 2 1 2 2 2 3 5 4 3 6 8 8 7 7 7 5 4 4 3 4 2 1 0 1 2 3 3 4 4 4 4 4 5 6 7 6 5 4 4 5 5 5 5 5 5 5 6 6 6 6 6 5
0 0 2 3 4 6 6 6 5 7 7 5 3 3 2 1 2 3 1 1 0 2 3 1 1 1 1 1 2 2 1 1 1 1 2 1 0 2 2 4 4 5 8 9 7 6 6 6 7 7 7 5 4 4 4 3 1 0 1 1 3 4 4 4 4 4 4 5 6 5 5 4 5 5 5 5 4 4 5 7 6 5 5 6 6 6 6
Wind_Direction
337 337 338 339 341 343 345 345 344 344 344 6 355 328 16 37 229 262 286 280 132 79 292 285 225 190 231 187 221 334 351 2 354 16 357 9 1 22 31 330 62 8 46 357 58 42 25 13 135 226 349 68 323 304 37 26 34 82 342 1 308 356 50 2 312 313 298 311 351 30 54 94 326 348 56 60 298 195 183 178 175 116 132 102 72 67 148
337 338 338 339 343 345 343 344 344 343 359 337 300 33 94 241 275 312 295 102 121 99 226 302 283 243 319 25 121 44 56 27 357 15 339 13 342 360 16 340 81 81 25 28 45 25 50 338 56 358 7 56 283 34 45 41 37 44 244 110 304 37 321 107 2 0 337 342 357 2 342 39 83 290 316 267 70 103 122 97 46 86 272 166 133 151 180
338 338 339 341 345 347 343 341 343 343 333 288 217 49 285 306 263 243 289 359 71 160 189 176 109 31 84 83 57 19 18 343 33 41 326 339 34 0 5 2 53 33 329 51 39 30 137 234 330 66 17 151 14 21 42 83 50 4 173 232 276 72 313 75 79 99 71 17 27 335 318 287 273 23 354 20 64 165 94 100 18 94 226 116 109 72 56
339 339 339 343 348 349 345 339 340 341 334 228 139 199 35 17 28 305 337 1 23 316 225 110 111 75 30 21 320 22 162 327 13 27 331 17 12 77 320 7 20 59 49 51 30 14 19 40 334 29 325 317 354 318 11 29 94 325 326 326 116 96 31 88 134 146 175 206 226 251 241 336 27 305 28 34 49 58 97 104 111 149 164 82 179 137 142
339 339 341 345 350 351 347 341 338 344 342 221 165 31 124 93 71 355 340 327 16 331 358 36 47 59 68 71 307 16 31 92 49 8 31 336 4 325 44 353 28 51 65 54 93 344 20 8 47 27 20 310 289 297 68 4 342 340 357 356 72 60 48 7 351 264 217 202 206 290 279 85 10 25 27 25 4 95 112 132 168 157 99 31 177 144 141
340 340 344 349 351 353 350 345 341 343 0 140 184 42 29 51 272 100 169 157 287 17 340 51 65 41 65 58 6 69 60 43 30 357 12 354 40 33 329 25 26 71 108 106 54 347 79 41 10 332 6 338 358 357 350 63 5 35 16 18 95 114 63 313 345 322 345 312 353 340 5 57 64 29 53 49 36 47 85 76 135 141 130 158 172 161 143
340 341 347 352 352 354 354 350 345 343 348 153 357 77 320 84 286 280 339 66 287 279 312 41 77 57 43 55 38 50 58 47 35 42 353 11 22 35 20 357 55 43 48 84 102 18 74 346 358 29 334 8 5 8 343 351 1 20 22 16 72 79 45 334 335 312 350 347 6 349 42 29 30 38 23 42 40 68 135 142 152 126 125 137 140 146 137
342 343 349 353 354 356 356 353 350 347 341 331 79 54 45 353 23 321 350 16 308 334 7 32 66 63 30 75 345 61 63 45 346 11 48 22 1 10 34 358 16 66 51 51 63 25 68 53 43 357 24 345 29 335 154 271 335 15 17 15 342 100 316 20 349 26 353 329 356 359 349 37 41 13 18 29 57 58 81 95 76 86 97 115 125 130 121
342 345 350 355 357 359 358 356 357 350 346 53 43 67 46 282 221 205 326 350 334 349 20 67 89 65 354 67 18 59 46 37 334 65 59 86 349 24 41 25 36 29 45 40 28 355 16 16 4 349 68 6 288 7 300 43 43 0 1 17 331 56 314 67 41 50 340 345 360 348 355 27 95 360 9 23 58 77 108 107 153 117 131 128 121 123 136
343 345 351 355 359 2 0 2 0 358 348 94 26 17 297 308 259 199 151 203 333 12 321 346 57 41 254 149 201 104 61 75 43 37 7 47 39 66 66 56 73 18 32 17 332 309 343 339 317 311 259 236 268 243 271 318 105 28 354 333 49 352 53 42 53 44 291 313 346 347 5 37 20 343 318 39 76 129 90 71 136 135 135 133 148 170 156
344 347 351 355 359 3 4 5 6 7 9 61 40 349 337 21 327 346 29 70 341 4 340 29 90 90 51 44 57 61 73 54 58 98 356 21 51 51 55 46 81 97 24 312 285 246 285 295 303 316 329 321 333 330 340 351 10 119 96 31 347 24 60 10 131 116 256 318 331 4 52 39 277 238 239 208 127 125 124 137 143 147 147 157 146 140 140
345 347 352 356 360 2 4 5 6 14 22 325 205 261 254 299 316 105 48 70 286 330 55 63 90 79 60 51 70 72 62 43 29 58 98 29 73 54 50 39 78 23 265 282 337 354 342 346 346 342 349 328 322 323 333 350 330 39 129 117 68 30 19 336 286 74 307 320 3 44 25 243 248 294 292 140 120 120 131 123 117 102 91 100 107 116 122
345 347 352 357 359 1 1 3 5 5 10 348 197 336 295 311 72 45 98 105 23 338 7 357 47 78 72 51 44 42 96 98 53 18 72 55 42 63 50 80 79 261 318 357 352 17 34 327 325 320 315 352 340 338 312 300 310 324 31 108 102 18 36 301 4 145 28 34 24 91 239 248 302 296 55 55 91 107 89 60 26 94 125 126 122 125 124
345 346 352 356 359 0 0 1 2 2 1 2 265 262 278 349 37 26 47 84 324 272 249 26 22 37 67 37 41 354 37 30 11 45 65 49 100 84 82 74 208 329 346 15 38 50 12 28 5 15 326 8 360 12 290 270 251 287 11 359 52 126 109 69 326 24 183 200 131 209 293 332 345 357 352 82 136 144 133 121 12 35 110 120 128 129 126
344 345 350 356 359 0 1 359 1 359 0 356 287 293 324 343 52 126 290 93 152 293 20 60 325 12 54 53 76 55 39 339 38 353 316 11 81 144 117 84 13 31 27 64 4 31 108 68 28 23 335 43 74 263 325 9 321 67 95 64 60 112 78 209 97 310 63 44 0 357 23 275 277 256 311 89 125 93 99 103 84 58 85 73 99 128 135
342 343 348 355 359 1 0 360 360 359 0 357 24 1 281 304 333 94 122 141 104 39 341 320 40 41 88 65 72 91 48 51 28 19 356 334 80 25 347 34 100 76 35 69 88 71 23 80 219 81 159 212 238 22 320 327 353 316 20 48 45 28 97 122 114 255 28 37 105 219 151 245 215 258 278 158 115 113 98 85 131 208 145 150 137 123 103
343 342 346 352 358 360 0 360 358 359 360 11 349 331 299 355 11 360 42 15 77 179 258 347 3 91 67 2 11 29 77 71 20 63 330 325 310 86 280 349 360 48 79 69 2 54 18 11 8 144 285 309 75 194 323 45 17 339 337 9 20 44 4 36 35 34 126 114 67 296 200 261 302 280 297 198 130 106 72 96 215 209 144 140 130 131 136
342 341 345 350 355 358 359 359 358 356 358 356 353 283 290 316 343 27 64 70 79 324 340 350 8 49 72 186 234 266 68 23 29 16 108 257 12 1 311 5 31 337 71 65 34 53 29 29 9 358 152 285 350 37 196 212 111 210 242 231 149 359 342 88 198 192 242 137 258 310 309 294 277 292 298 309 331 76 113 180 212 174 151 157 151 156 158
339 341 344 349 353 356 358 358 358 357 357 358 344 121 285 315 336 39 109 45 63 69 296 304 29 31 357 17 70 64 97 118 129 93 328 8 321 252 270 287 71 13 357 115 58 50 59 326 353 72 82 321 25 125 290 43 305 287 59 49 21 352 51 308 93 153 225 201 172 223 238 238 265 267 270 336 111 202 196 231 209 141 158 165 150 142 120
339 340 343 347 351 352 356 357 357 356 356 359 16 122 269 299 341 46 64 77 76 255 278 308 13 12 337 44 39 37 8 28 61 112 114 115 285 5 26 17 331 65 1 43 42 311 89 318 293 10 28 340 313 197 26 286 336 5 295 204 121 218 106 262 226 273 36 66 90 9 193 267 9 308 336 23 105 227 211 100 30 148 146 133 130 126 124
339 339 343 346 348 350 352 355 354 355 354 355 7 3 350 328 6 5 33 143 118 37 309 300 3 346 359 352 48 110 119 136 106 80 218 189 233 88 93 197 251 37 41 89 107 8 102 345 326 32 233 121 297 52 199 290 327 302 69 138 100 277 75 258 313 178 138 28 115 192 226 278 311 3 137 304 224 212 158 152 98 28 113 122 115 116 130
339 339 342 344 346 347 349 351 353 353 354 354 351 101 340 294 326 332 318 150 119 175 211 265 244 259 273 268 182 125 138 152 177 152 123 14 349 104 161 115 54 87 4 79 39 17 0 289 31 36 360 308 18 118 226 46 342 276 341 59 43 314 162 177 137 262 128 198 209 251 252 263 331 38 74 154 14 71 107 97 95 118 96 121 107 116 121
338 339 341 343 343 345 347 350 351 351 350 354 2 74 209 306 321 321 333 54 317 321 301 321 321 297 296 273 233 139 128 116 106 91 117 114 40 19 70 66 30 61 74 91 160 152 188 119 209 164 21 61 200 311 338 127 233 354 23 311 169 277 287 306 83 281 306 258 203 222 28 7 46 40 28 30 65 50 74 96 96 53 79 102 117 119 117
337 338 341 342 342 343 347 349 348 347 348 348 360 49 317 290 279 341 1 81 81 352 338 323 44 343 358 174 235 25 78 80 128 166 168 122 115 37 347 327 153 46 36 244 177 130 195 125 204 117 121 259 66 72 147 325 328 293 39 341 343 311 342 54 94 305 63 201 349 346 350 355 21 70 40 33 27 40 82 87 90 103 96 89 89 109 111
338 338 342 342 341 343 346 347 345 344 344 346 342 283 249 309 282 30 42 52 340 63 130 307 341 230 349 311 105 82 135 136 107 105 90 87 124 137 167 218 168 143 193 228 40 53 41 88 352 44 96 275 94 278 232 108 306 66 39 274 357 328 262 72 274 343 126 224 261 282 298 335 344 89 97 75 49 42 47 81 87 87 74 80 94 91 91
338 338 341 340 341 342 344 343 341 340 340 342 345 336 348 258 300 329 158 68 118 103 86 320 276 336 10 19 3 343 97 91 95 122 140 150 153 145 156 138 39 36 101 87 76 94 107 47 81 112 112 285 104 129 250 193 207 253 164 239 197 210 17 289 199 230 282 337 270 318 1 20 360 19 46 132 128 116 97 85 89 90 88 82 61 74 97
337 337 338 339 339 340 339 337 336 335 334 334 333 310 278 283 280 278 16 292 65 14 39 270 289 313 3 339 297 27 75 88 85 103 145 92 103 68 80 91 95 45 68 44 48 120 76 89 97 224 164 208 129 212 179 331 129 27 286 281 304 31 297 245 48 343 316 205 238 15 124 236 304 344 342 279 147 127 125 122 115 118 117 111 99 74 78
336 335 337 338 337 336 335 333 329 329 331 325 311 286 256 270 283 311 307 103 108 159 193 277 310 292 310 292 300 22 345 53 75 78 75 73 81 89 95 102 98 88 53 80 27 28 57 80 258 239 152 325 45 324 335 258 72 9 241 254 201 180 224 141 171 164 242 259 238 250 213 231 243 284 342 309 235 140 138 141 143 142 138 138 132 127 121
335 334 336 336 337 334 332 328 325 327 326 332 306 310 266 252 256 289 333 358 104 97 116 252 290 349 77 255 302 3 52 92 87 86 90 84 81 80 86 85 94 119 81 74 98 111 112 173 159 115 142 213 104 283 23 324 210 228 246 334 8 355 350 54 197 178 231 245 259 321 75 33 304 338 342 345 325 241 152 161 148 145 143 140 134 137 133
334 334 334 335 334 331 327 324 322 320 325 326 333 53 59 329 353 28 356 4 42 117 78 52 61 250 283 313 320 358 80 84 95 93 86 87 85 95 117 99 61 55 105 134 145 108 212 130 21 39 338 44 126 175 87 216 245 248 338 12 0 336 343 353 354 1 308 284 261 254 183 203 271 258 289 299 7 351 265 170 166 152 156 145 139 146 145
333 330 332 333 331 330 328 326 323 320 335 318 44 80 71 52 302 63 10 5 355 101 155 107 208 275 336 266 97 5 350 102 98 101 102 99 116 116 115 82 61 95 65 17 50 175 117 78 108 24 353 344 106 107 183 86 291 303 293 346 284 303 273 246 227 233 303 326 308 259 323 71 12 354 348 6 359 350 342 293 195 164 167 149 150 152 158
329 327 323 327 327 324 333 332 322 328 339 307 107 139 167 185 273 323 349 329 350 64 75 59 342 2 263 320 314 290 5 67 95 69 29 74 24 27 50 80 142 42 120 133 157 79 320 210 108 158 115 214 91 119 106 131 190 249 296 298 288 276 265 259 268 302 31 3 45 17 18 26 77 78 297 345 353 343 342 337 305 228 168 153 155 157 156
324 323 325 322 316 314 317 319 311 296 242 280 275 271 269 269 268 273 318 327 46 108 162 87 168 220 35 253 330 329 10 34 20 60 57 342 136 66 76 46 54 63 358 73 352 144 224 118 107 71 285 23 98 143 126 190 217 252 264 289 270 265 270 271 336 350 337 341 71 151 223 222 233 167 160 81 282 343 358 344 343 323 114 121 128 130 113
320 320 322 317 306 307 311 312 303 289 289 312 45 15 277 221 242 238 242 284 116 244 94 120 25 308 249 324 46 291 30 119 219 84 73 305 148 72 153 67 15 78 338 106 245 66 328 61 91 155 28 294 48 75 309 258 268 282 298 294 292 300 301 339 34 343 316 293 298 185 181 224 207 169 124 118 112 70 37 27 351 342 304 148 140 150 142
316 320 319 314 308 307 306 305 312 250 290 269 241 259 7 99 114 153 141 91 75 37 49 288 120 63 344 356 79 271 352 83 255 208 137 255 48 153 52 75 332 76 283 81 50 156 148 220 165 85 249 55 51 4 245 263 298 326 331 325 319 344 354 24 334 334 315 320 355 10 278 216 208 288 68 129 106 89 86 36 6 328 324 296 167 149 148
320 319 319 312 306 303 302 165 175 256 3 301 201 235 137 119 74 357 200 238 145 142 122 242 113 188 153 151 287 265 78 70 222 72 154 137 8 4 104 118 53 270 192 95 197 4 166 211 79 18 251 96 219 192 234 259 297 311 315 308 307 326 306 266 273 308 329 350 1 347 9 8 71 260 210 191 133 144 129 214 277 302 353 321 304 218 154
319 320 314 305 305 91 299 244 181 187 210 178 129 92 85 82 3 4 28 13 318 93 147 91 57 252 165 204 247 281 79 327 155 80 9 99 190 228 73 57 184 200 53 13 43 113 260 82 103 119 35 164 254 244 249 247 250 272 304 290 299 306 296 284 264 318 353 359 359 354 343 353 334 295 306 290 185 168 163 193 200 207 162 232 299 315 294
321 320 350 15 35 20 11 313 204 188 100 101 122 86 357 16 87 2 358 24 244 96 310 85 199 253 334 83 254 253 79 272 83 133 326 246 83 260 141 117 218 121 265 189 232 190 106 44 93 130 258 255 233 253 273 259 262 250 281 330 324 329 334 335 11 61 20 353 350 341 348 357 340 298 272 286 213 216 225 215 190 178 192 198 202 202 241
316 336 15 274 124 299 183 263 106 107 75 86 99 60 308 196 102 63 223 176 68 321 252 138 242 211 133 88 266 290 161 167 357 27 116 267 102 310 15 94 279 83 286 78 279 80 40 327 46 60 282 274 284 274 277 297 306 285 262 264 331 330 338 330 320 47 165 202 257 252 252 274 290 300 301 300 274 239 234 223 216 211 196 195 194 181 246
44 33 261 182 170 266 288 42 77 99 72 78 257 114 204 191 106 255 352 70 327 259 135 226 225 187 166 166 155 280 301 89 95 348 166 296 311 145 249 93 244 97 229 148 228 90 121 149 219 81 291 251 244 261 285 283 290 287 292 269 322 344 358 7 355 344 335 268 223 228 226 239 241 247 273 285 296 296 269 230 228 218 217 215 204 183 195
322 293 344 309 292 327 321 321 340 49 119 350 282 288 72 327 245 188 109 186 181 229 185 177 355 25 279 109 111 187 282 83 203 149 120 133 252 79 68 221 234 88 284 226 258 103 93 79 42 173 231 219 218 264 298 313 280 296 349 359 15 20 23 9 346 343 22 18 353 323 284 257 256 267 272 284 295 290 282 252 219 223 217 211 211 203 160
125 149 274 302 268 278 298 283 175 12 331 204 117 277 201 207 44 8 108 139 250 310 285 132 274 184 230 176 194 151 298 189 136 118 97 72 292 122 211 228 38 130 231 234 135 55 76 131 240 275 259 238 248 268 289 307 307 9 339 329 357 12 16 1 328 311 15 46 351 344 328 323 318 296 272 291 299 297 299 296 271 237 227 231 232 184 164
295 252 158 291 297 244 172 28 281 130 108 350 40 4 336 47 247 162 277 251 331 118 256 63 227 198 321 67 43 343 177 179 110 348 77 203 334 68 92 340 139 283 237 199 85 88 77 212 212 242 241 235 233 251 271 250 226 286 291 270 285 261 341 329 300 286 272 191 334 283 283 322 317 300 286 276 275 298 299 293 280 264 237 216 202 181 168
218 128 28 232 53 299 78 346 268 33 348 30 104 120 268 48 312 1 333 277 252 310 250 139 258 140 238 275 160 241 21 356 34 81 4 178 102 148 94 209 212 232 79 41 68 145 213 209 207 219 239 263 271 252 250 252 335 344 339 329 348 350 334 315 326 328 306 289 291 272 298 307 301 305 307 298 267 261 274 284 285 280 261 206 204 185 176
52 65 9 16 7 271 61 302 332 116 195 255 174 198 163 179 231 188 206 247 132 219 250 182 192 136 212 267 50 2 127 173 312 101 236 137 63 93 124 241 229 124 134 196 177 108 118 255 266 279 235 230 248 191 70 61 58 56 20 1 8 359 6 15 3 1 354 346 328 320 315 304 302 294 294 293 291 267 259 269 277 284 274 219 211 215 207
108 170 93 84 311 302 121 218 281 4 263 167 200 194 183 221 184 222 238 212 230 300 327 262 255 205 252 228 158 208 199 119 79 231 181 102 116 248 227 167 73 94 309 106 165 204 215 223 207 215 225 215 147 119 96 92 67 54 46 16 325 332 335 346 359 348 326 319 318 321 309 311 296 283 288 289 294 311 299 281 282 265 253 243 232 221 216
357 330 111 121 103 271 131 174 234 209 183 212 224 187 190 207 212 210 234 166 198 271 304 244 220 201 194 193 108 308 159 133 163 238 82 90 195 253 58 99 227 177 158 236 227 226 246 241 217 216 197 160 127 108 98 87 77 66 45 332 321 314 307 311 306 312 296 287 295 300 303 303 301 284 273 295 301 289 282 282 295 295 268 247 245 240 228
193 256 88 117 234 200 169 249 213 256 357 193 219 202 222 170 263 289 253 220 207 75 329 332 331 318 281 272 163 201 204 161 126 268 164 211 44 50 12 7 239 245 174 172 223 215 197 196 191 185 165 146 130 112 103 107 84 71 11 325 298 296 296 286 284 280 278 279 275 269 270 279 287 294 289 274 271 273 271 277 292 304 301 283 266 253 234
219 110 146 204 220 259 246 261 63 286 261 266 308 100 161 197 233 253 260 34 157 249 223 177 222 102 263 224 169 179 236 182 142 238 195 158 139 198 163 211 155 253 252 161 200 198 187 181 152 140 144 130 124 128 129 138 99 30 335 292 284 286 292 295 295 301 300 291 278 274 275 271 272 275 278 282 278 270 258 254 285 288 282 275 264 251 235
91 342 335 63 355 307 267 284 305 266 272 294 308 242 210 221 264 271 209 226 226 199 121 103 63 124 243 299 307 341 256 223 191 63 90 194 205 179 107 231 219 187 236 204 167 165 151 146 132 134 141 142 146 150 144 105 56 1 340 329 324 328 323 317 317 321 321 315 307 295 280 279 277 276 276 274 263 248 245 254 257 259 262 258 252 241 234
302 145 230 190 183 233 5 347 307 314 300 257 226 230 181 210 206 257 224 218 317 30 83 202 222 126 14 25 54 8 261 236 60 183 163 198 218 116 158 189 236 209 209 165 143 147 144 146 138 143 146 149 171 170 123 136 184 137 309 312 319 309 305 313 314 310 311 314 310 311 311 297 276 272 274 278 275 267 264 262 254 246 247 254 248 230 215
52 306 272 268 236 239 243 253 276 251 243 232 227 241 138 244 235 241 225 113 129 141 224 206 99 64 68 203 224 204 292 44 246 74 37 297 116 128 212 196 202 168 141 133 141 141 138 150 149 148 151 163 163 132 140 183 148 182 272 285 288 291 290 294 290 283 291 299 305 300 295 295 305 297 288 279 279 276 266 264 262 249 242 244 243 228 210